• Em Portugal
  • Lista de países
  • Para 7 dias
  • Temperatura da água
  • Mapas de satélite
  • Mapa do tempo
  • Widgets de tempo
  • user-avatar
    Iniciar Sessão

    Previsão horária em Sidnei

    Hoje, 27 Maio, Domingo

    Tempo Temperatura Precipitação Vento Pressão Humidade
    00:00 +13°C° 0 mm 2 m/s 770 mmHg 91%
    01:00 +12°C° 0 mm 2 m/s 770 mmHg 92%
    02:00 +12°C° 0 mm 2 m/s 770 mmHg 91%
    03:00 +12°C° 0 mm 2 m/s 770 mmHg 90%
    04:00 +10°C° 0 mm 2 m/s 770 mmHg 90%
    05:00 +10°C° 0 mm 2 m/s 770 mmHg 89%
    06:00 +10°C° 0 mm 2 m/s 770 mmHg 88%
    07:00 +10°C° 0 mm 2 m/s 770 mmHg 87%
    08:00 +13°C° 0 mm 2 m/s 770 mmHg 76%
    09:00 +16°C° 0 mm 2 m/s 770 mmHg 65%
    10:00 +19°C° 0 mm 2 m/s 770 mmHg 54%
    11:00 +20°C° 0 mm 2 m/s 770 mmHg 49%
    12:00 +21°C° 0 mm 2 m/s 769 mmHg 45%
    13:00 +24°C° 0 mm 3 m/s 768 mmHg 40%
    14:00 +22°C° 0 mm 3 m/s 768 mmHg 43%
    15:00 +21°C° 0 mm 3 m/s 768 mmHg 46%
    16:00 +21°C° 0 mm 3 m/s 768 mmHg 49%
    17:00 +19°C° 0 mm 3 m/s 768 mmHg 57%
    18:00 +18°C° 0 mm 3 m/s 768 mmHg 64%
    19:00 +16°C° 0 mm 3 m/s 769 mmHg 72%
    20:00 +14°C° 0 mm 3 m/s 769 mmHg 75%
    21:00 +14°C° 0 mm 3 m/s 769 mmHg 79%
    22:00 +13°C° 0 mm 3 m/s 769 mmHg 82%
    23:00 +13°C° 0 mm 3 m/s 769 mmHg 84%

    Amanhã, 28 Maio, Segunda-feira

    Tempo Temperatura Precipitação Vento Pressão Humidade
    00:00 +13°C° 0 mm 2 m/s 769 mmHg 85%
    01:00 +13°C° 0 mm 2 m/s 769 mmHg 87%
    02:00 +13°C° 0 mm 2 m/s 769 mmHg 87%
    03:00 +12°C° 0 mm 2 m/s 768 mmHg 87%
    04:00 +12°C° 0 mm 2 m/s 768 mmHg 87%
    05:00 +12°C° 0 mm 2 m/s 768 mmHg 87%
    06:00 +12°C° 0 mm 2 m/s 768 mmHg 87%
    07:00 +12°C° 0 mm 1 m/s 768 mmHg 86%
    08:00 +14°C° 0 mm 1 m/s 768 mmHg 77%
    09:00 +16°C° 0 mm 1 m/s 768 mmHg 68%
    10:00 +19°C° 0 mm 1 m/s 768 mmHg 59%
    11:00 +19°C° 0 mm 2 m/s 768 mmHg 54%
    12:00 +20°C° 0 mm 2 m/s 767 mmHg 50%
    13:00 +21°C° 0 mm 3 m/s 767 mmHg 45%
    14:00 +21°C° 0 mm 3 m/s 766 mmHg 47%
    15:00 +21°C° 0 mm 3 m/s 766 mmHg 49%
    16:00 +20°C° 0 mm 3 m/s 766 mmHg 51%
    17:00 +18°C° 0 mm 3 m/s 766 mmHg 59%
    18:00 +17°C° 0 mm 3 m/s 767 mmHg 67%
    19:00 +14°C° 0 mm 3 m/s 767 mmHg 75%
    20:00 +14°C° 0 mm 3 m/s 767 mmHg 78%
    21:00 +13°C° 0 mm 3 m/s 767 mmHg 80%
    22:00 +13°C° 0 mm 3 m/s 767 mmHg 82%
    23:00 +12°C° 0 mm 3 m/s 767 mmHg 82%

    Depois de amanhã, 29 Maio, Terça-feira

    Tempo Temperatura Precipitação Vento Pressão Humidade
    00:00 +12°C° 0 mm 3 m/s 767 mmHg 81%
    01:00 +11°C° 0 mm 3 m/s 766 mmHg 81%
    02:00 +11°C° 0 mm 3 m/s 766 mmHg 79%
    03:00 +11°C° 0 mm 3 m/s 766 mmHg 78%
    04:00 +10°C° 0 mm 2 m/s 766 mmHg 76%
    05:00 +10°C° 0 mm 2 m/s 766 mmHg 73%
    06:00 +10°C° 0 mm 2 m/s 766 mmHg 70%
    07:00 +10°C° 0 mm 2 m/s 766 mmHg 66%
    08:00 +14°C° 0 mm 2 m/s 766 mmHg 57%
    09:00 +17°C° 0 mm 2 m/s 765 mmHg 47%
    10:00 +20°C° 0 mm 2 m/s 765 mmHg 37%
    11:00 +21°C° 0 mm 2 m/s 765 mmHg 34%
    12:00 +24°C° 0 mm 2 m/s 764 mmHg 31%
    13:00 +26°C° 0 mm 2 m/s 763 mmHg 29%
    14:00 +25°C° 0 mm 3 m/s 763 mmHg 32%
    15:00 +24°C° 0 mm 3 m/s 763 mmHg 35%
    16:00 +24°C° 0 mm 3 m/s 762 mmHg 39%
    17:00 +21°C° 0 mm 4 m/s 762 mmHg 45%
    18:00 +19°C° 0 mm 4 m/s 763 mmHg 52%
    19:00 +17°C° 0 mm 4 m/s 763 mmHg 58%
    20:00 +17°C° 0 mm 4 m/s 763 mmHg 59%
    21:00 +15°C° 0 mm 4 m/s 763 mmHg 60%
    22:00 +15°C° 0 mm 4 m/s 763 mmHg 61%
    23:00 +14°C° 0 mm 4 m/s 762 mmHg 63%

    30 Maio, Quarta-feira

    Tempo Temperatura Precipitação Vento Pressão Humidade
    00:00 +14°C° 0 mm 4 m/s 762 mmHg 65%
    01:00 +14°C° 0 mm 4 m/s 761 mmHg 67%
    02:00 +14°C° 0,2 mm 4 m/s 761 mmHg 72%
    03:00 +14°C° 0,2 mm 4 m/s 761 mmHg 78%
    04:00 +14°C° 0,2 mm 4 m/s 761 mmHg 84%
    05:00 +13°C° 0,7 mm 4 m/s 762 mmHg 86%
    06:00 +13°C° 0,7 mm 4 m/s 762 mmHg 87%
    07:00 +13°C° 0,7 mm 4 m/s 763 mmHg 89%
    08:00 +13°C° 0,2 mm 5 m/s 763 mmHg 82%
    09:00 +14°C° 0,2 mm 5 m/s 764 mmHg 74%
    10:00 +14°C° 0,2 mm 6 m/s 764 mmHg 66%
    11:00 +14°C° 0,2 mm 6 m/s 764 mmHg 62%
    12:00 +14°C° 0,2 mm 7 m/s 764 mmHg 59%
    13:00 +15°C° 0,2 mm 7 m/s 764 mmHg 55%
    14:00 +15°C° 0 mm 7 m/s 764 mmHg 52%
    15:00 +15°C° 0 mm 7 m/s 764 mmHg 48%
    16:00 +16°C° 0 mm 6 m/s 764 mmHg 45%
    17:00 +14°C° 0 mm 6 m/s 765 mmHg 49%
    18:00 +13°C° 0 mm 6 m/s 765 mmHg 52%
    19:00 +10°C° 0 mm 6 m/s 766 mmHg 56%
    20:00 +10°C° 0 mm 6 m/s 766 mmHg 55%
    21:00 +9°C° 0 mm 6 m/s 767 mmHg 55%
    22:00 +9°C° 0 mm 6 m/s 767 mmHg 54%
    23:00 +9°C° 0 mm 6 m/s 767 mmHg 57%

    31 Maio, Quinta-feira

    Tempo Temperatura Precipitação Vento Pressão Humidade
    00:00 +8°C° 0 mm 6 m/s 767 mmHg 60%
    01:00 +8°C° 0 mm 6 m/s 767 mmHg 63%
    02:00 +7°C° 0 mm 6 m/s 767 mmHg 64%
    03:00 +7°C° 0 mm 5 m/s 766 mmHg 65%
    04:00 +6°C° 0 mm 5 m/s 766 mmHg 66%
    05:00 +7°C° 0 mm 5 m/s 767 mmHg 65%
    06:00 +7°C° 0 mm 6 m/s 767 mmHg 64%
    07:00 +7°C° 0 mm 6 m/s 767 mmHg 63%
    08:00 +10°C° 0 mm 7 m/s 767 mmHg 56%
    09:00 +12°C° 0 mm 7 m/s 767 mmHg 48%
    10:00 +15°C° 0 mm 8 m/s 768 mmHg 41%
    11:00 +16°C° 0 mm 8 m/s 767 mmHg 38%
    12:00 +17°C° 0 mm 8 m/s 766 mmHg 35%
    13:00 +17°C° 0 mm 8 m/s 766 mmHg 32%
    14:00 +17°C° 0 mm 8 m/s 766 mmHg 33%
    15:00 +17°C° 0 mm 8 m/s 766 mmHg 35%
    16:00 +16°C° 0 mm 9 m/s 766 mmHg 36%
    17:00 +15°C° 0 mm 9 m/s 767 mmHg 41%
    18:00 +12°C° 0 mm 9 m/s 767 mmHg 45%
    19:00 +10°C° 0 mm 9 m/s 768 mmHg 50%
    20:00 +10°C° 0,1 mm 9 m/s 768 mmHg 50%
    21:00 +10°C° 0,1 mm 9 m/s 768 mmHg 51%
    22:00 +8°C° 0,1 mm 9 m/s 769 mmHg 51%
    23:00 +8°C° 0,1 mm 9 m/s 768 mmHg 53%

    1 Junho, Sexta-feira

    Tempo Temperatura Precipitação Vento Pressão Humidade
    00:00 +8°C° 0,1 mm 9 m/s 768 mmHg 54%
    01:00 +8°C° 0,1 mm 9 m/s 768 mmHg 56%
    02:00 +8°C° 0,2 mm 9 m/s 768 mmHg 56%
    03:00 +8°C° 0,2 mm 9 m/s 767 mmHg 57%
    04:00 +8°C° 0,2 mm 9 m/s 767 mmHg 57%
    05:00 +8°C° 0,5 mm 9 m/s 767 mmHg 58%
    06:00 +8°C° 0,5 mm 10 m/s 768 mmHg 58%
    07:00 +9°C° 0,5 mm 10 m/s 768 mmHg 59%
    08:00 +9°C° 0,4 mm 10 m/s 768 mmHg 61%
    09:00 +11°C° 0,4 mm 10 m/s 768 mmHg 62%
    10:00 +11°C° 0,4 mm 10 m/s 767 mmHg 64%
    11:00 +12°C° 0,3 mm 10 m/s 767 mmHg 64%
    12:00 +12°C° 0,3 mm 10 m/s 767 mmHg 63%
    13:00 +12°C° 0,3 mm 10 m/s 766 mmHg 63%
    14:00 +12°C° 0,3 mm 10 m/s 766 mmHg 64%
    15:00 +12°C° 0,3 mm 10 m/s 766 mmHg 64%
    16:00 +12°C° 0,3 mm 11 m/s 766 mmHg 65%
    17:00 +12°C° 0,2 mm 11 m/s 766 mmHg 66%
    18:00 +12°C° 0,2 mm 11 m/s 766 mmHg 68%
    19:00 +11°C° 0,2 mm 11 m/s 766 mmHg 69%
    20:00 +11°C° 0,1 mm 11 m/s 766 mmHg 68%
    21:00 +10°C° 0,1 mm 12 m/s 766 mmHg 68%
    22:00 +10°C° 0,1 mm 12 m/s 766 mmHg 67%
    23:00 +12°C° 0,1 mm 12 m/s 766 mmHg 68%
    Mostrar mais